Wetbulb
63.75 61.76 60.93 58.75 49.62 47.25 43.74 45.69 49.34 49.35 52.69 57.38 58.82 57.83 57.06 58.60 56.38 54.75 69.12 69.75 69.58 69.67 70.29 71.30 72.39 72.84 73.75 73.39 72.62 73.25 73.29 72.62 71.46 70.63 70.23 69.68 69.20 68.83 68.52 68.22 68.04 67.75 67.68 67.40 66.66 67.06 66.61 66.29 65.69
61.94 60.10 58.61 56.22 44.79 41.66 43.68 47.75 46.60 51.07 53.49 56.28 57.06 57.89 57.15 56.24 61.89 64.52 67.55 70.05 69.48 69.38 70.01 70.65 72.40 72.93 73.84 73.59 72.98 73.17 72.73 72.12 70.45 69.93 69.31 68.85 68.58 68.43 68.10 67.83 67.54 67.37 67.19 66.52 66.69 66.22 66.15 65.48 65.35
60.50 59.02 52.43 48.78 45.72 41.01 42.20 46.46 48.28 51.04 52.88 53.76 52.84 58.34 56.64 58.85 65.65 67.24 70.52 70.47 69.71 68.86 70.13 70.17 72.42 72.91 73.81 73.32 72.81 73.12 72.55 71.63 69.75 69.38 68.76 68.40 68.26 68.13 67.65 67.23 66.80 66.60 66.32 66.08 66.46 65.80 65.61 65.88 66.16
58.17 55.35 51.13 44.04 42.03 45.57 45.78 47.71 49.34 50.55 50.99 51.67 51.60 49.81 56.37 61.68 62.55 65.61 69.17 70.52 69.67 68.78 70.07 71.10 72.04 72.85 73.22 73.05 72.73 72.90 72.03 70.57 69.48 68.94 68.46 68.09 68.01 67.62 66.90 66.03 65.80 65.80 65.78 66.22 66.07 65.55 65.63 67.23 67.12
57.58 53.05 44.84 42.60 42.84 45.34 47.05 48.54 48.72 47.48 48.32 48.40 50.29 48.33 50.52 56.83 65.37 67.74 69.31 70.35 69.39 68.92 69.67 71.04 72.12 73.23 72.96 73.01 72.85 72.27 71.57 70.02 69.22 68.73 68.25 67.86 67.59 66.54 65.53 64.82 65.14 65.46 65.78 66.17 65.69 65.52 66.04 67.18 66.77
51.95 50.80 42.07 40.46 42.89 45.04 46.81 48.26 47.78 46.76 47.52 48.01 47.58 48.31 49.85 56.31 63.23 63.58 67.24 69.11 70.02 68.86 69.02 70.58 70.88 72.06 72.35 72.65 72.15 71.71 71.13 69.74 68.90 68.27 67.80 67.51 66.46 65.52 64.60 64.17 64.95 65.40 65.99 66.06 65.62 65.43 65.51 66.63 66.50
48.86 46.64 42.48 42.49 42.13 43.46 45.59 49.24 46.95 47.01 47.43 47.71 50.36 46.69 51.09 53.86 62.04 63.68 65.79 68.79 68.92 69.06 68.50 69.64 69.76 71.41 70.85 71.16 70.97 70.71 69.92 69.43 68.98 68.16 67.68 66.67 65.73 64.83 64.07 64.17 64.66 65.49 66.14 65.66 65.28 65.32 65.22 65.53 66.04
51.89 48.04 42.81 43.86 42.10 42.29 47.27 48.13 49.65 48.66 47.77 52.55 52.75 47.36 48.49 53.96 60.50 61.34 66.90 67.99 67.62 67.97 67.98 68.08 69.76 71.16 70.76 70.53 69.24 68.97 68.67 68.22 67.97 67.51 66.67 65.53 64.86 64.67 64.93 64.87 65.48 65.82 65.91 65.00 65.09 65.21 64.90 65.08 65.53
53.46 44.48 42.08 43.14 42.46 44.25 48.44 46.88 50.62 52.16 49.78 50.99 52.30 51.95 53.74 56.16 57.45 58.79 62.51 66.20 65.84 66.58 67.01 69.31 70.74 70.76 70.23 69.53 67.98 67.78 67.50 67.05 66.65 65.69 64.34 63.03 62.60 62.92 62.34 63.36 64.88 65.88 65.70 65.31 65.30 65.06 64.45 65.02 64.85
48.69 44.48 43.92 46.84 46.87 45.71 47.84 47.81 48.64 48.38 48.47 49.13 50.72 53.61 54.96 55.48 55.60 56.81 57.92 63.19 64.67 64.67 66.28 69.04 70.33 70.34 69.33 68.23 67.26 67.07 66.31 65.77 64.85 64.29 62.61 61.90 62.36 62.34 62.47 61.74 63.87 65.11 65.16 65.27 65.48 64.73 63.79 63.69 62.83
48.69 43.80 46.68 47.14 48.26 48.85 47.51 47.64 50.07 47.73 45.95 49.27 49.39 51.71 53.83 54.17 54.20 56.32 58.23 61.50 64.10 64.80 65.48 68.48 69.67 69.29 67.69 66.75 66.67 66.78 66.25 64.98 64.09 62.95 61.31 61.63 61.49 60.92 61.10 61.17 61.86 62.44 62.02 63.05 63.81 62.31 61.19 61.18 61.87
43.93 47.65 47.74 48.08 48.90 47.82 46.34 49.01 47.40 48.55 48.57 51.90 52.47 53.42 53.49 53.24 53.87 55.18 56.39 59.52 64.32 64.43 64.96 67.56 68.92 66.97 67.18 65.75 66.68 66.12 64.73 63.61 63.12 62.31 60.38 60.71 59.85 59.87 60.49 60.12 61.04 60.61 61.14 61.55 61.80 60.12 60.32 60.37 60.95
45.36 46.90 47.84 48.59 48.41 48.14 48.80 46.94 47.41 48.12 51.48 52.82 52.80 52.67 52.50 53.45 53.93 55.33 56.91 59.48 61.96 63.70 64.29 66.79 67.18 66.40 66.28 64.80 66.32 65.22 63.71 62.76 62.04 61.31 59.89 59.03 59.04 59.29 60.09 59.88 59.85 59.70 59.78 59.22 59.16 59.33 59.52 59.38 59.25
47.96 47.06 47.00 48.32 48.16 48.48 46.50 46.90 47.91 49.08 52.18 51.71 52.07 52.15 52.73 53.14 53.95 54.92 56.64 58.20 59.92 64.28 63.72 65.68 65.58 66.33 66.41 64.08 65.09 64.20 63.04 61.78 60.28 59.81 58.54 57.84 58.63 58.41 57.81 57.94 57.86 57.66 58.48 58.61 58.43 58.71 58.90 59.18 59.03
47.52 43.54 46.55 47.71 47.12 46.42 47.61 43.54 44.90 50.27 51.81 50.34 50.84 51.51 52.27 53.29 54.42 54.61 56.92 58.12 59.11 64.63 64.41 63.49 64.82 65.71 65.56 63.89 64.84 63.55 61.92 59.03 57.57 57.56 57.16 57.16 57.44 57.71 57.70 56.84 57.33 57.75 58.16 57.96 58.37 58.35 59.11 58.93 58.72
44.18 44.48 40.86 45.93 46.73 46.60 45.23 39.81 47.10 49.96 49.16 48.42 49.46 50.15 51.29 53.11 54.28 55.25 56.88 59.33 61.41 64.35 63.18 63.29 64.48 64.55 64.22 63.61 64.00 62.33 60.62 57.26 56.94 57.37 57.47 56.75 56.90 57.47 57.24 56.87 56.60 57.19 57.88 58.10 57.94 57.85 57.70 58.11 58.14
43.71 38.41 39.99 42.08 46.10 45.10 44.05 41.15 46.87 49.62 49.02 48.14 48.98 49.70 50.38 51.62 53.82 55.11 56.67 58.09 62.29 64.48 62.99 61.83 61.22 62.59 63.35 63.55 62.94 60.82 58.36 56.73 56.76 57.12 57.10 56.96 56.68 56.91 56.98 56.66 56.51 56.18 56.58 56.51 56.60 57.12 57.49 57.23 57.96
36.02 37.82 39.84 39.75 43.95 44.91 42.76 42.23 46.11 48.59 48.40 47.93 48.53 49.34 49.93 51.06 52.25 54.85 56.53 57.95 61.86 63.94 62.16 57.13 54.82 53.99 55.22 55.96 60.38 58.68 56.73 56.81 56.89 56.74 56.66 56.46 56.95 56.59 56.99 56.57 55.90 56.24 55.74 55.24 55.65 55.90 56.98 57.12 57.27
40.86 38.79 38.25 41.80 44.93 41.78 41.57 42.03 44.86 47.53 47.63 47.53 48.14 48.71 49.31 50.33 53.12 55.07 56.23 58.65 61.70 56.25 53.60 53.42 53.31 51.60 51.85 51.83 53.12 54.84 54.60 55.83 55.90 56.84 56.94 56.25 56.17 56.44 56.89 56.30 55.47 55.64 55.29 54.33 54.25 54.99 55.34 55.76 56.26
39.90 38.38 38.69 42.23 43.45 42.38 41.85 41.41 45.16 46.21 46.62 47.50 47.62 48.28 49.32 50.59 52.01 53.57 55.34 59.36 58.70 56.27 54.52 53.49 51.86 51.33 51.58 52.55 52.08 52.50 55.75 56.07 56.08 57.06 56.88 56.77 56.18 56.66 56.20 55.96 54.99 55.09 54.78 54.12 53.97 54.04 53.90 54.97 54.62
40.06 38.53 38.70 38.38 41.72 43.42 41.55 40.95 42.49 45.33 46.64 47.58 48.29 49.34 49.83 49.74 50.45 52.57 53.78 56.99 58.31 56.43 55.46 53.53 52.84 52.50 52.81 54.08 52.94 51.32 53.01 54.59 54.64 55.12 55.74 56.12 56.40 56.69 56.54 55.89 54.97 54.63 54.64 53.21 53.47 54.28 53.46 52.42 53.66
36.30 41.84 40.15 38.90 37.78 33.93 41.91 32.77 40.84 42.69 43.60 45.56 46.85 48.37 49.14 50.18 51.49 51.30 53.35 55.85 59.37 57.84 56.47 54.47 54.01 54.51 55.64 54.85 52.70 50.70 49.52 51.20 53.15 54.32 55.57 55.83 56.30 56.30 56.40 55.88 54.83 54.29 54.23 53.77 53.80 54.44 53.79 53.74 51.28
38.47 41.73 39.83 39.35 37.19 37.10 38.07 34.64 39.91 42.56 40.98 43.26 46.08 48.01 49.48 50.72 51.43 52.37 52.30 55.06 59.14 60.36 56.49 55.74 55.57 55.77 55.77 54.40 53.58 52.62 51.44 52.14 52.96 54.00 54.59 54.93 55.62 56.30 56.11 55.64 54.42 53.57 54.05 54.03 53.66 54.04 53.94 53.71 51.47
42.88 40.22 40.30 39.79 36.95 31.58 37.45 34.88 36.72 39.59 40.65 43.25 45.45 47.48 48.50 49.50 51.38 54.16 52.89 54.03 58.32 59.32 57.16 55.79 55.88 56.16 56.37 55.50 55.05 53.84 53.60 51.38 51.74 52.91 53.33 53.74 54.45 54.94 55.06 54.41 53.36 53.11 53.03 52.93 52.49 53.36 52.96 52.51 51.82
40.10 37.70 31.98 30.78 30.70 30.29 36.28 33.56 38.09 42.83 44.14 44.80 44.64 46.00 48.37 48.82 48.89 51.32 53.55 52.24 55.40 57.83 55.91 55.52 55.31 54.60 54.71 54.43 53.71 52.93 52.20 51.72 52.18 52.41 53.35 53.45 53.22 53.47 53.36 52.73 51.79 51.57 52.10 51.96 51.77 51.45 50.65 50.28 49.61
38.29 37.53 31.69 24.08 26.59 30.02 36.62 30.82 38.69 44.47 45.68 46.15 46.16 47.29 46.91 47.31 48.54 49.30 52.22 54.00 54.47 57.60 55.36 54.80 54.41 54.31 54.66 54.42 54.20 53.87 52.60 52.80 53.02 54.09 54.26 53.36 53.21 52.95 52.87 52.06 51.56 51.08 50.51 49.78 49.47 48.84 48.58 48.32 47.08
37.89 34.59 39.38 32.57 33.97 29.29 33.23 38.38 42.95 44.71 43.86 45.00 44.89 44.75 45.60 46.78 47.86 47.98 49.79 53.24 54.63 56.15 55.88 54.45 54.44 54.70 54.22 54.20 54.38 53.94 53.48 53.16 53.44 54.12 54.91 54.30 54.03 52.60 51.78 51.16 50.07 49.08 48.51 47.75 46.82 45.73 45.49 45.07 44.10
38.68 40.42 32.68 34.26 24.69 23.94 31.16 33.17 36.07 40.43 41.60 42.30 42.60 43.06 44.77 46.22 47.21 48.30 48.90 50.47 54.42 55.81 57.39 55.49 55.13 55.00 54.80 54.62 54.86 53.85 53.24 53.44 53.93 54.56 53.94 53.05 52.45 51.28 50.45 49.26 48.44 47.02 45.82 45.18 44.02 43.23 43.01 41.76 41.40
36.38 34.46 35.68 35.05 33.16 26.36 25.60 31.50 42.66 41.01 40.81 41.17 42.23 42.80 43.26 44.65 46.04 47.20 48.61 49.86 53.44 55.72 57.17 55.56 55.35 54.78 54.90 54.40 54.50 54.08 53.31 53.16 53.22 53.30 53.02 51.30 50.75 50.21 49.06 47.96 46.47 45.33 44.90 43.53 42.06 40.77 39.97 39.28 38.23
37.58 35.26 35.69 29.90 28.95 32.21 30.64 29.99 43.12 42.62 42.83 43.41 41.71 41.88 43.13 44.08 44.82 45.98 47.52 49.00 51.83 54.46 54.07 56.00 55.57 54.86 54.97 54.32 54.01 53.62 52.79 52.70 51.80 51.15 50.11 48.45 47.20 47.45 47.27 46.16 44.97 44.16 42.73 41.20 39.16 38.23 37.98 37.39 37.55
MSLP
1011.18 1010.28 1009.94 1009.24 1008.24 1006.36 1004.43 1003.48 1002.91 1002.76 1002.95 1003.12 1003.66 1003.43 1002.69 1002.50 1002.04 1003.04 1004.53 1004.60 1004.97 1005.53 1006.61 1007.65 1008.10 1008.65 1009.04 1009.46 1009.85 1010.24 1010.64 1010.99 1011.48 1011.93 1012.36 1012.68 1012.94 1013.21 1013.46 1013.72 1013.89 1014.10 1014.33 1014.54 1014.72 1014.87 1015.00 1015.18 1015.39
1011.25 1010.24 1009.75 1008.18 1007.10 1005.01 1003.60 1002.91 1002.83 1003.53 1003.73 1004.29 1004.35 1004.09 1003.88 1003.14 1002.82 1002.89 1003.83 1005.25 1005.10 1005.60 1006.48 1007.49 1008.16 1008.72 1009.02 1009.50 1009.95 1010.39 1010.79 1011.15 1011.75 1012.16 1012.53 1012.85 1013.08 1013.38 1013.70 1013.97 1014.20 1014.37 1014.59 1014.78 1014.93 1015.15 1015.29 1015.52 1015.64
1010.96 1010.52 1009.09 1007.70 1006.11 1004.63 1003.59 1003.48 1003.65 1004.10 1004.28 1004.85 1005.03 1004.54 1004.70 1003.40 1003.96 1004.03 1004.75 1005.67 1005.64 1005.68 1006.42 1007.25 1008.31 1008.70 1009.05 1009.53 1010.01 1010.52 1010.94 1011.32 1011.95 1012.35 1012.69 1013.02 1013.32 1013.55 1013.90 1014.21 1014.45 1014.67 1014.86 1015.03 1015.17 1015.35 1015.52 1015.67 1015.82
1010.48 1009.99 1009.35 1007.84 1005.73 1004.79 1004.72 1004.88 1005.64 1005.73 1005.59 1005.44 1005.55 1005.39 1005.04 1004.62 1005.01 1005.52 1005.63 1005.98 1006.00 1005.88 1006.29 1007.40 1008.42 1008.81 1009.10 1009.60 1010.12 1010.67 1011.12 1011.53 1012.07 1012.50 1012.85 1013.20 1013.49 1013.79 1014.12 1014.48 1014.72 1014.95 1015.10 1015.21 1015.44 1015.58 1015.77 1015.87 1016.08
1010.49 1009.74 1008.41 1007.26 1006.17 1005.60 1005.71 1006.29 1006.50 1006.53 1006.38 1005.91 1005.96 1005.51 1005.24 1004.90 1005.43 1006.36 1006.83 1006.36 1006.03 1006.06 1006.41 1007.72 1008.51 1008.87 1009.18 1009.66 1010.22 1010.70 1011.21 1011.76 1012.22 1012.60 1012.98 1013.35 1013.68 1014.06 1014.39 1014.73 1014.93 1015.13 1015.28 1015.41 1015.70 1015.88 1016.08 1016.28 1016.50
1010.05 1009.77 1008.10 1006.77 1005.73 1005.87 1006.53 1006.93 1007.08 1006.90 1006.71 1006.41 1005.98 1005.80 1005.56 1005.43 1005.73 1006.69 1007.02 1006.94 1006.35 1006.04 1006.47 1007.57 1008.60 1009.09 1009.32 1009.75 1010.27 1010.74 1011.33 1011.87 1012.35 1012.69 1013.09 1013.44 1013.89 1014.28 1014.62 1014.90 1015.09 1015.26 1015.43 1015.67 1015.92 1016.16 1016.45 1016.68 1016.91
1010.32 1009.52 1008.02 1007.20 1006.76 1006.52 1006.66 1007.50 1007.48 1007.11 1006.73 1006.32 1006.18 1005.78 1005.91 1005.70 1006.14 1006.77 1006.83 1007.08 1006.84 1006.33 1006.58 1007.16 1008.43 1009.06 1009.47 1009.98 1010.41 1010.76 1011.46 1011.95 1012.48 1012.84 1013.26 1013.67 1014.11 1014.46 1014.72 1015.01 1015.18 1015.41 1015.56 1015.88 1016.20 1016.48 1016.79 1017.10 1017.36
1011.01 1010.26 1008.39 1007.60 1007.08 1006.89 1007.27 1008.10 1008.02 1007.89 1007.23 1006.97 1006.92 1006.48 1005.91 1005.84 1006.31 1006.92 1006.93 1007.31 1006.96 1006.65 1006.70 1007.17 1007.94 1008.74 1009.27 1010.01 1010.58 1011.00 1011.64 1012.11 1012.60 1013.06 1013.51 1013.98 1014.41 1014.68 1014.88 1015.11 1015.33 1015.51 1015.85 1016.18 1016.47 1016.78 1017.17 1017.49 1017.81
1011.72 1010.33 1008.35 1007.73 1007.68 1007.36 1007.67 1007.89 1007.91 1007.89 1007.52 1007.24 1007.13 1006.79 1006.69 1006.06 1006.58 1006.77 1007.02 1007.26 1007.15 1007.11 1006.89 1006.95 1007.74 1008.31 1008.94 1009.73 1010.61 1011.24 1011.92 1012.30 1012.72 1013.31 1013.81 1014.19 1014.20 1014.65 1015.08 1014.98 1015.57 1015.79 1016.16 1016.47 1016.71 1017.06 1017.56 1017.89 1018.17
1011.49 1010.06 1008.71 1008.56 1008.52 1008.26 1008.22 1008.20 1007.96 1007.86 1007.21 1006.60 1006.58 1006.48 1006.44 1006.43 1006.45 1006.31 1006.81 1007.11 1007.20 1007.19 1006.70 1006.77 1007.61 1008.14 1008.63 1009.53 1010.44 1011.08 1011.79 1012.30 1012.59 1013.09 1013.73 1013.60 1013.82 1014.27 1014.48 1015.38 1015.83 1016.17 1016.46 1016.70 1017.01 1017.50 1017.86 1017.85 1018.07
1010.96 1010.19 1009.28 1009.10 1009.03 1008.96 1008.67 1008.27 1008.02 1007.48 1006.36 1006.25 1005.96 1005.92 1005.82 1005.81 1005.69 1005.72 1006.09 1006.63 1006.93 1006.87 1006.42 1006.57 1007.39 1007.97 1008.59 1009.28 1009.80 1010.64 1011.34 1011.80 1012.04 1012.56 1013.13 1012.89 1013.48 1014.40 1014.84 1015.60 1015.92 1016.33 1016.70 1016.76 1017.26 1017.74 1017.47 1017.25 1017.69
1011.30 1010.15 1009.84 1009.36 1009.19 1009.08 1008.71 1008.20 1007.48 1007.15 1005.69 1005.83 1005.67 1005.59 1005.63 1005.54 1005.43 1005.39 1005.66 1006.00 1006.38 1006.57 1006.33 1006.63 1007.32 1007.82 1008.14 1008.95 1009.30 1009.82 1010.83 1011.20 1011.53 1012.19 1012.49 1012.84 1013.57 1014.21 1014.54 1015.08 1015.43 1015.93 1016.21 1016.62 1016.91 1017.03 1016.99 1017.26 1017.51
1010.85 1010.17 1009.72 1009.39 1009.09 1008.85 1008.48 1007.67 1007.01 1005.87 1005.40 1005.15 1004.89 1004.90 1004.89 1004.91 1005.04 1005.10 1005.22 1005.36 1005.63 1006.09 1006.40 1006.61 1007.16 1007.59 1007.71 1008.40 1008.73 1009.29 1010.24 1010.82 1011.37 1011.94 1012.32 1012.90 1013.30 1013.70 1014.12 1014.59 1015.09 1015.49 1015.76 1016.16 1016.49 1016.68 1017.07 1017.32 1017.53
1010.40 1010.22 1009.50 1008.96 1008.48 1008.20 1007.94 1006.93 1006.67 1004.76 1004.60 1004.15 1004.10 1004.03 1004.11 1004.17 1004.37 1004.54 1004.56 1004.62 1004.84 1005.66 1005.92 1006.35 1007.11 1007.20 1007.51 1007.95 1008.29 1009.07 1009.89 1010.74 1011.48 1012.01 1012.41 1012.76 1013.17 1013.55 1014.01 1014.66 1014.99 1015.35 1015.69 1015.97 1016.34 1016.68 1017.09 1017.38 1017.71
1010.88 1010.04 1008.84 1007.68 1007.84 1007.87 1007.63 1006.06 1004.84 1004.04 1003.80 1003.55 1003.37 1003.41 1003.46 1003.51 1003.64 1003.67 1003.95 1003.91 1004.29 1004.89 1006.23 1007.19 1007.13 1006.74 1007.42 1007.40 1008.30 1009.00 1009.65 1010.40 1011.40 1011.99 1012.49 1012.83 1013.20 1013.50 1014.03 1014.54 1015.03 1015.37 1015.70 1015.96 1016.16 1016.62 1017.08 1017.64 1017.99
1010.32 1009.53 1007.81 1006.88 1007.12 1007.40 1007.78 1004.54 1003.74 1003.27 1003.09 1002.74 1002.65 1002.61 1002.54 1002.70 1003.15 1003.19 1003.27 1003.32 1003.65 1004.05 1005.15 1006.04 1005.90 1006.57 1007.25 1006.88 1007.93 1008.69 1009.40 1010.12 1011.01 1011.73 1012.34 1012.83 1013.26 1013.53 1014.00 1014.50 1015.04 1015.40 1015.91 1016.25 1016.49 1016.91 1017.36 1017.81 1018.28
1009.11 1008.00 1007.14 1006.52 1007.03 1007.20 1007.14 1004.44 1003.28 1003.30 1002.35 1001.72 1001.59 1001.71 1001.94 1002.02 1002.34 1002.66 1002.89 1002.93 1003.28 1003.89 1005.04 1005.51 1007.11 1007.24 1007.48 1006.92 1007.87 1008.78 1009.22 1009.88 1010.53 1011.39 1012.07 1012.76 1013.23 1013.59 1013.91 1014.46 1014.95 1015.70 1016.13 1016.63 1016.96 1017.23 1017.54 1017.92 1018.41
1008.28 1007.55 1006.76 1006.29 1006.14 1005.95 1005.58 1004.17 1002.99 1002.22 1001.48 1001.05 1000.77 1000.84 1001.21 1001.49 1001.74 1002.17 1002.49 1002.89 1003.40 1004.05 1004.91 1005.90 1006.64 1008.00 1006.46 1009.23 1007.79 1009.57 1009.85 1009.63 1010.19 1011.05 1011.60 1012.66 1013.24 1013.62 1013.88 1014.48 1014.92 1015.46 1015.92 1016.36 1016.96 1017.16 1017.56 1018.03 1018.63
1008.13 1007.70 1006.73 1006.09 1005.70 1006.11 1004.90 1003.74 1002.44 1001.67 1001.10 1000.70 1000.45 1000.30 1000.57 1000.88 1001.30 1001.85 1002.10 1002.68 1003.77 1005.28 1006.20 1006.40 1007.29 1007.32 1009.16 1009.98 1010.87 1010.31 1010.39 1009.81 1010.23 1010.92 1011.43 1012.47 1013.08 1013.55 1013.77 1014.50 1015.10 1015.43 1015.80 1016.31 1016.91 1017.33 1017.53 1018.15 1018.87
1008.25 1007.48 1006.50 1005.68 1006.02 1005.86 1004.33 1002.78 1001.84 1001.15 1000.95 1000.72 1000.41 1000.33 1000.50 1000.73 1001.17 1001.66 1002.10 1002.91 1004.45 1005.27 1006.11 1007.11 1007.70 1008.84 1009.42 1011.34 1011.88 1011.72 1011.00 1010.61 1010.47 1010.96 1011.68 1012.30 1013.04 1013.47 1013.80 1014.33 1015.06 1015.44 1015.82 1016.40 1016.82 1017.33 1017.70 1018.25 1018.93
1007.77 1007.17 1006.45 1006.25 1005.94 1005.08 1004.55 1001.56 1000.96 1000.97 1000.90 1000.56 1000.23 1000.37 1000.85 1001.13 1001.34 1001.42 1001.88 1002.69 1004.36 1005.37 1005.98 1006.51 1007.14 1007.91 1008.81 1009.05 1011.31 1011.99 1011.86 1011.32 1011.08 1011.43 1012.03 1012.31 1012.78 1013.36 1013.63 1014.14 1014.81 1015.22 1015.71 1016.21 1016.83 1017.35 1017.75 1018.30 1018.85
1007.32 1007.15 1007.08 1006.88 1006.49 1005.37 1004.65 1002.63 1000.63 1000.43 1000.38 1000.24 1000.11 1000.46 1000.86 1001.21 1001.63 1001.81 1001.76 1002.38 1003.57 1004.64 1005.74 1006.57 1007.39 1007.30 1007.58 1007.54 1008.88 1010.62 1011.44 1011.24 1010.75 1011.41 1011.77 1012.18 1012.51 1013.11 1013.53 1014.07 1014.56 1015.23 1015.62 1016.10 1016.84 1017.29 1017.80 1018.15 1018.82
1007.42 1007.80 1007.55 1007.11 1006.67 1005.94 1004.34 1003.61 1000.40 1000.50 1000.17 1000.27 1000.50 1000.98 1001.23 1001.46 1001.66 1001.83 1002.00 1002.15 1003.01 1004.22 1005.27 1006.14 1006.62 1006.86 1007.42 1008.00 1008.59 1008.83 1009.22 1010.02 1010.20 1010.94 1011.48 1011.94 1012.39 1012.80 1013.26 1013.95 1014.42 1015.16 1015.64 1016.13 1016.72 1017.24 1017.70 1018.09 1018.66
1007.88 1007.78 1006.99 1006.82 1006.71 1005.64 1003.57 1003.26 1000.90 1000.23 1000.51 1000.54 1000.90 1001.56 1001.77 1001.77 1001.60 1001.70 1002.05 1002.05 1002.35 1003.57 1004.69 1005.63 1006.17 1006.60 1007.12 1007.72 1007.86 1008.31 1009.15 1009.29 1009.83 1010.07 1010.57 1011.40 1011.92 1012.34 1012.89 1013.60 1014.40 1014.91 1015.60 1016.18 1016.82 1017.41 1017.86 1018.15 1018.48
1008.22 1007.70 1006.59 1006.25 1006.20 1004.57 1004.23 1003.43 1000.92 1000.37 1000.59 1001.12 1001.60 1002.01 1002.29 1002.07 1001.85 1001.72 1001.85 1002.04 1002.23 1003.40 1004.42 1005.06 1005.66 1006.06 1006.75 1007.34 1007.70 1008.29 1008.93 1009.31 1008.80 1009.22 1009.98 1010.83 1011.22 1011.79 1012.19 1012.95 1013.87 1014.57 1015.31 1016.01 1016.72 1017.46 1018.03 1018.42 1018.73
1007.50 1007.52 1006.98 1005.93 1005.15 1004.36 1003.75 1002.41 1000.25 1000.60 1001.24 1001.65 1002.06 1002.35 1002.51 1002.38 1002.21 1001.94 1001.78 1002.02 1002.15 1002.90 1004.12 1004.97 1005.36 1005.78 1006.22 1006.52 1006.82 1007.38 1008.16 1008.25 1008.98 1009.46 1009.99 1010.63 1011.41 1011.61 1011.90 1012.68 1013.54 1014.31 1015.10 1015.85 1016.61 1017.47 1018.02 1018.52 1019.03
1007.59 1007.47 1007.29 1006.74 1005.70 1005.21 1003.14 1001.74 1000.57 1000.71 1001.53 1001.74 1002.30 1002.59 1002.73 1002.67 1002.32 1002.19 1001.96 1001.85 1001.98 1002.18 1003.20 1004.26 1004.91 1005.24 1005.36 1005.79 1006.42 1007.20 1008.15 1008.12 1008.85 1009.69 1010.13 1010.62 1011.64 1012.00 1012.40 1012.91 1013.53 1014.39 1015.17 1015.82 1016.55 1017.42 1018.06 1018.78 1019.45
1008.02 1007.98 1007.40 1006.98 1005.91 1004.24 1002.64 1001.73 1001.13 1001.07 1001.44 1002.41 1002.62 1002.77 1003.08 1002.95 1002.57 1002.30 1002.11 1001.80 1001.72 1001.76 1002.35 1003.46 1004.31 1004.62 1005.18 1005.64 1006.04 1006.55 1007.50 1007.94 1008.74 1009.22 1009.83 1010.44 1011.23 1011.77 1012.82 1013.44 1014.26 1015.17 1015.50 1016.05 1016.74 1017.60 1018.35 1018.96 1019.94
1007.94 1007.78 1007.70 1007.23 1006.13 1004.86 1003.06 1001.49 1000.91 1001.37 1002.12 1002.20 1002.60 1003.35 1003.83 1003.64 1003.25 1002.74 1002.21 1001.87 1001.50 1001.62 1001.80 1002.79 1003.88 1004.55 1004.78 1005.32 1005.99 1006.52 1007.07 1007.63 1008.39 1008.90 1009.34 1010.38 1010.95 1012.06 1012.85 1013.63 1014.61 1015.46 1016.06 1016.51 1017.01 1017.76 1018.53 1019.05 1020.05
1008.22 1007.77 1007.48 1006.98 1006.15 1005.36 1004.25 1002.33 1001.33 1001.69 1001.93 1002.26 1003.39 1004.02 1004.26 1004.58 1004.22 1003.50 1002.41 1001.82 1001.45 1001.72 1002.36 1002.79 1003.30 1003.96 1004.67 1004.95 1005.60 1006.26 1006.64 1007.25 1008.03 1008.86 1009.41 1010.22 1011.03 1011.84 1013.18 1014.01 1015.14 1015.96 1016.83 1017.17 1017.29 1017.79 1018.69 1019.25 1020.02
Wind_Speed
15 7 3 5 7 7 13 15 15 10 10 7 11 9 11 15 14 4 4 4 3 14 20 20 21 20 18 19 18 16 16 16 16 14 14 14 13 13 12 12 13 12 12 13 12 13 13 14 14
11 7 4 3 8 11 11 13 14 11 15 7 10 11 15 17 15 3 4 4 6 15 19 21 21 20 19 18 19 17 17 17 16 15 14 14 14 13 12 12 13 13 13 13 14 14 15 14 13
7 5 5 5 8 13 11 9 6 9 10 8 7 8 8 6 16 10 14 4 6 15 18 19 20 20 20 18 17 17 18 18 17 15 15 14 13 13 13 12 13 13 13 14 15 15 15 14 15
3 4 4 8 14 11 9 10 4 10 13 11 10 10 11 7 7 10 16 6 8 14 17 20 20 20 21 19 18 19 18 18 17 15 14 14 13 13 13 13 13 13 13 14 15 15 15 16 16
3 3 7 10 13 11 9 10 10 12 16 16 13 16 18 13 10 9 12 10 9 13 15 20 20 18 21 20 19 19 18 19 17 16 15 14 13 13 13 13 13 14 14 15 15 15 15 16 15
4 4 7 10 10 5 6 9 12 14 15 17 19 17 19 11 3 10 7 7 10 13 15 18 18 19 20 20 20 19 18 18 17 16 15 15 14 14 13 14 14 14 14 15 15 15 15 15 15
6 6 11 10 12 11 5 6 9 12 15 15 15 19 13 14 8 11 6 6 11 11 14 15 20 18 18 20 19 19 18 17 15 15 15 14 14 13 14 14 14 15 15 15 15 15 15 14 14
5 4 8 7 8 12 7 4 10 10 13 13 11 8 13 16 7 13 5 8 7 9 13 16 19 18 18 16 17 17 16 16 15 14 13 12 11 11 12 11 12 15 15 14 14 16 15 15 13
3 6 8 9 8 9 7 12 12 13 17 15 17 20 20 24 19 13 11 8 6 9 16 16 16 18 17 16 13 14 13 13 14 13 13 12 10 12 12 10 10 12 13 13 14 16 15 14 11
5 7 8 6 11 14 15 16 18 19 21 21 18 20 20 20 21 14 9 12 12 12 18 15 16 17 16 11 15 14 14 12 12 13 14 11 12 10 10 10 10 11 11 11 16 16 16 13 9
3 7 10 14 13 14 17 19 18 19 25 22 19 19 19 18 19 14 12 11 16 14 14 15 16 16 15 13 10 7 7 8 9 14 13 10 9 8 8 7 8 9 9 8 11 10 9 10 8
9 13 12 17 15 16 20 21 22 21 28 21 21 20 19 20 18 17 13 12 13 14 16 14 16 14 17 11 10 12 9 9 8 10 14 9 6 9 9 7 9 9 8 11 9 7 7 7 8
15 13 11 14 18 19 20 22 22 26 24 22 21 20 21 20 21 19 16 13 12 16 14 14 15 16 16 14 11 11 12 8 10 9 11 9 8 9 9 8 8 8 6 8 8 7 8 8 8
9 13 20 16 16 14 16 20 17 23 15 16 17 18 19 20 20 18 17 15 14 16 16 13 14 17 17 13 15 10 11 11 8 8 9 12 8 7 7 8 7 7 7 7 8 8 8 7 8
11 16 15 14 5 10 9 17 16 22 15 18 17 16 17 17 17 18 15 15 13 14 13 17 15 17 17 16 14 11 10 10 9 8 12 12 10 9 8 7 7 7 6 9 7 8 7 6 6
7 8 7 4 6 4 3 14 15 12 14 18 19 19 16 14 11 14 15 12 11 9 17 15 9 13 17 15 13 10 11 10 9 8 8 12 12 11 8 7 7 8 6 5 6 6 6 6 6
8 9 14 10 5 6 8 21 16 24 20 20 20 19 18 15 14 11 13 10 9 8 12 12 1 7 10 14 12 12 13 10 9 9 9 10 11 12 8 7 8 9 7 6 7 7 7 7 6
6 15 15 15 5 15 18 25 22 20 16 16 15 14 15 14 13 10 12 10 7 7 9 12 9 9 13 9 9 8 8 9 8 8 9 12 9 11 7 6 8 8 7 6 5 8 7 7 6
14 14 18 16 10 9 14 21 20 18 10 11 11 8 10 12 10 9 8 7 3 14 14 14 13 18 11 8 8 6 7 8 8 7 11 12 11 11 9 6 7 7 7 8 9 7 9 8 7
13 15 17 13 4 11 17 25 14 5 6 9 11 9 7 5 6 10 10 10 9 12 16 16 17 17 16 7 4 7 3 3 5 6 7 10 11 10 9 9 8 9 7 9 9 9 7 7 9
14 15 16 15 16 17 11 14 5 5 4 6 9 8 4 4 4 7 9 12 13 12 14 16 17 20 20 21 8 3 4 1 4 6 7 9 11 11 9 10 8 8 8 7 8 9 9 8 8
16 5 7 10 10 5 9 7 4 0 1 2 9 10 8 7 7 5 7 11 17 15 13 14 17 17 14 17 15 10 9 7 8 8 8 8 11 11 10 9 9 8 6 8 8 8 7 7 6
6 5 10 11 11 10 6 5 2 3 5 6 11 11 10 9 9 5 6 10 12 15 15 15 15 14 16 16 20 19 15 12 7 10 12 11 10 11 10 9 9 8 5 7 8 8 6 6 7
10 13 15 8 5 5 5 2 8 3 2 4 12 12 12 13 12 9 2 8 10 10 13 13 15 15 17 18 17 16 19 15 14 14 12 11 10 10 12 11 8 8 7 8 7 7 7 5 5
5 10 5 5 4 4 4 6 10 3 3 5 7 8 9 13 15 12 8 5 9 12 13 14 16 14 15 17 16 13 12 15 11 13 12 13 11 11 13 13 12 9 9 9 8 8 7 7 6
8 6 6 6 5 8 5 7 3 7 6 5 5 7 15 15 13 13 10 7 9 12 12 13 15 17 16 15 13 10 12 8 8 10 9 8 8 9 14 13 12 12 12 11 10 8 7 8 7
4 6 3 6 7 5 6 6 11 10 9 7 9 14 15 15 14 14 14 9 9 11 13 13 15 15 16 17 13 12 13 10 10 13 11 9 8 7 11 13 13 13 13 12 12 8 10 9 8
8 6 5 5 5 8 6 10 7 6 10 8 12 18 18 17 15 13 11 13 8 10 12 13 13 15 14 15 14 12 14 14 13 11 12 11 10 12 12 11 11 11 11 13 12 10 10 11 7
6 5 7 6 8 7 8 4 5 5 5 13 19 20 20 19 19 18 14 10 9 8 5 11 12 14 13 13 13 12 14 14 12 11 12 10 11 12 12 13 12 12 12 11 11 11 11 12 10
9 15 16 11 9 8 11 9 7 3 2 17 20 20 21 20 19 20 18 14 10 6 7 8 12 13 12 13 13 13 12 14 12 12 13 13 12 13 13 13 12 11 9 10 13 13 11 12 11
Wind_Direction
300 302 276 232 232 238 259 247 254 256 252 309 348 307 286 291 265 319 122 211 250 161 159 173 169 170 168 164 161 158 152 139 141 150 151 149 146 143 137 130 126 125 120 115 114 110 109 106 101
308 307 227 263 252 240 250 237 245 236 263 3 311 276 257 266 283 302 66 45 219 168 161 177 170 174 170 164 162 155 147 141 152 154 154 152 148 141 137 133 129 124 119 116 116 112 111 107 104
276 274 252 235 243 252 281 2 311 279 290 298 291 309 310 334 11 356 40 21 217 173 166 176 171 176 167 161 161 158 150 145 159 155 154 152 147 141 136 132 127 123 121 122 119 118 112 109 110
293 193 237 250 259 266 289 305 334 299 283 275 269 265 258 322 327 355 330 330 225 181 170 152 171 181 165 162 160 155 152 151 159 155 153 151 147 141 137 132 129 127 127 127 121 119 114 110 107
227 253 254 239 267 279 302 296 294 285 278 277 270 272 268 272 13 353 342 318 236 189 177 156 172 183 166 162 160 154 151 159 159 155 153 152 146 142 137 136 135 133 132 127 124 122 117 113 107
227 288 248 254 275 325 254 272 279 274 274 277 269 266 270 276 7 348 335 290 267 200 186 162 176 178 167 161 157 151 153 159 158 155 155 151 147 144 141 142 139 137 136 128 128 125 120 114 111
284 264 267 292 285 285 311 331 282 285 281 275 286 278 278 269 47 346 314 269 279 220 188 168 183 177 164 159 153 148 161 156 156 155 154 147 146 147 146 143 142 142 137 130 130 128 122 118 112
284 268 267 257 281 292 329 298 289 279 280 295 303 260 259 238 8 342 320 275 257 245 190 173 186 180 168 160 151 145 154 152 152 151 138 130 134 148 145 141 145 144 135 134 135 129 122 120 113
286 256 275 293 283 288 298 283 279 285 273 268 267 268 275 289 304 296 307 257 240 258 200 179 187 181 172 168 150 137 143 144 140 127 126 140 156 162 153 124 140 135 134 138 140 130 122 113 112
263 270 298 323 301 293 296 289 290 286 276 269 267 262 262 266 271 266 274 264 223 234 210 186 187 186 166 159 155 157 160 164 165 164 161 179 156 148 137 118 129 135 134 137 132 128 140 155 139
237 257 316 292 289 296 292 284 282 277 269 266 270 271 272 263 258 244 253 267 236 218 211 186 187 178 163 151 160 164 162 172 171 170 177 171 152 143 141 139 140 141 149 146 137 151 179 150 144
270 261 271 287 289 288 283 289 281 273 270 279 278 275 274 268 263 254 252 254 234 216 219 195 183 173 161 152 173 169 171 175 166 167 181 162 146 168 150 159 156 155 175 155 152 182 146 145 153
254 273 286 288 286 280 280 274 277 272 273 272 269 264 261 258 258 257 250 251 246 223 235 191 179 183 160 158 189 169 176 174 173 170 173 171 165 169 161 158 162 162 157 160 171 160 153 157 140
318 296 291 289 280 280 276 278 279 271 277 267 260 259 259 261 257 255 244 245 243 220 214 201 185 178 169 166 181 168 172 176 170 171 178 176 167 166 165 161 163 156 163 160 160 159 160 145 147
284 296 295 262 265 292 311 275 244 256 260 270 262 263 263 261 257 248 245 247 246 213 205 220 185 177 177 162 183 168 171 168 166 171 179 179 166 164 160 161 154 158 164 159 157 153 146 149 134
269 274 284 145 235 259 279 287 300 322 302 279 270 271 265 248 251 249 247 245 238 208 196 180 192 191 183 164 175 169 169 163 166 170 167 181 171 166 164 151 165 154 149 147 146 140 144 147 150
189 286 308 315 183 287 247 292 302 303 290 283 276 266 265 261 247 248 259 254 245 206 180 149 328 181 211 167 167 165 164 166 162 167 168 175 174 167 162 163 150 152 152 158 158 162 156 155 147
295 289 297 295 295 283 279 279 295 305 299 302 296 278 258 251 247 244 236 242 259 206 156 109 105 34 48 6 137 155 165 161 154 165 168 171 169 168 161 156 154 162 151 148 160 157 153 145 136
290 285 286 293 333 307 285 295 300 299 304 318 330 304 256 253 249 237 213 206 233 123 119 118 110 97 52 62 335 157 177 160 156 162 164 172 169 173 157 152 156 156 164 153 163 155 155 144 140
270 277 283 298 186 308 298 299 292 290 311 327 331 340 333 289 243 217 205 161 148 153 143 138 127 121 114 107 65 311 180 162 154 150 165 164 168 168 162 158 163 166 160 161 161 160 152 147 152
263 270 282 292 319 282 314 270 191 163 279 348 358 16 44 4 316 230 206 187 158 154 157 153 151 154 151 146 142 3 328 233 176 172 176 176 173 169 167 163 167 168 158 160 163 164 162 160 179
282 342 307 293 312 309 355 301 269 132 272 2 21 20 12 15 7 302 227 200 172 168 165 157 167 162 162 149 146 154 218 217 183 193 178 173 173 172 170 169 166 163 165 157 165 165 163 160 166
268 326 290 295 289 297 171 245 246 137 53 57 51 36 27 16 3 355 256 229 187 176 174 176 174 167 159 163 173 180 188 218 195 178 175 169 170 171 167 166 162 159 169 153 159 162 161 165 154
296 290 271 262 264 241 151 332 274 79 54 63 72 53 35 14 3 5 300 247 195 172 165 175 176 178 174 182 190 191 197 192 193 174 172 174 171 166 163 162 158 156 160 152 152 157 157 154 139
233 274 291 226 205 268 143 277 259 335 60 21 33 43 32 6 356 350 353 241 229 168 171 176 183 185 185 194 192 188 196 205 186 173 174 174 170 170 167 161 160 155 149 144 143 136 136 134 133
282 288 272 291 300 308 233 242 158 99 90 69 60 54 12 357 354 345 339 321 244 178 180 186 187 186 189 196 198 189 203 197 187 191 183 181 182 171 160 159 155 147 144 141 136 125 119 110 104
98 224 6 293 273 266 233 254 265 111 120 85 72 10 9 359 354 352 338 318 291 228 181 198 194 195 190 192 191 188 204 193 190 190 184 170 172 158 161 153 148 146 143 139 130 128 122 113 105
245 356 253 202 267 276 260 241 249 141 64 35 5 -0 1 350 347 344 337 321 302 265 186 182 203 201 196 197 193 190 192 191 193 179 179 165 157 149 154 143 139 138 134 132 125 122 118 116 110
212 226 223 301 272 279 296 285 109 84 87 5 353 5 353 351 347 336 329 320 297 285 194 181 195 203 199 195 199 192 194 189 185 180 163 161 151 153 152 146 145 143 142 132 126 121 123 120 119
278 278 282 266 264 225 277 266 337 123 238 352 5 352 350 351 348 345 332 325 295 250 244 193 195 193 198 191 195 201 190 189 176 174 156 143 144 142 151 141 136 129 124 132 128 130 133 131 128